User: anonymous
Location: Caltech
(34.1382°N, 118.1253°W)
Time: 02:49:42
(UTC-07:00)
Language:

GPS 2-04 Rocket1 - Orbit

View from above orbital plane
View from above orbital plane
View from above satellite
View from above satellite

Ground track
Ground track

The orbit data is extracted from the following two-line orbital elements,

1 20303U 89085B   14213.11335245  .00004302  00000-0  20692-3 0  8364
2 20303 035.6338 075.0799 0141107 309.0426 191.9518 15.09962553340683
Epoch (UTC): 01 August 2014 02:43:13
Eccentricity: 0.0141107
inclination: 35.6338°
perigee height: 439 km
apogee height: 634 km
right ascension of ascending node: 75.0799°
argument of perigee: 309.0426°
revolutions per day: 15.09962553
mean anomaly at epoch: 191.9518°
orbit number at epoch: 34068

The dashed part of the orbit path shows where the satellite is in the earth's shadow,  

DLR